THORAD DELTA 1 DEB, 42613

Orbit data source: Space-Track

THORAD DELTA 1 DEB, 42613 is space debris in SSO originally from a launch on Fri, 15 Nov 1974 UTC launched from the Air Force Western Test Range (AFWTR). Debris objects in space refer to the collection of defunct objects orbiting the Earth. Examples of debris include non-operational satellites, rocket bodies, and fragments generated from explosions, collisions, or faulty payload assembly.

Loading next visibility...
Identifier
42613, 1974-089GE
Orbit
SSO
Country
Flag of USUS
Related business
Manufacturer
Unknown
Mission
Spacecraft
Bus & Motor
Unknown
Mass
Unknown
Launch date (UTC)
1974-11-15 (51 years ago)
Launch vehicle
Unknown
Launch site
Air Force Western Test Range (AFWTR)
Object type
Payload
Rocket body
Debris
Shape & HBR
Unknown shape, 0.1 m
Radar Cross Section
Small (<0.1 m²)

Expand to show TLE details & history
Last TLE update: 1 week ago

TLE from 1 week ago
0 THORAD DELTA 1 DEB
1 42613U 74089GE  25289.29029147 -.00000021  00000-0  18388-3 0  9999
2 42613 102.2571 289.7849 0066981 275.4759 102.4462 12.43771211541101
Epoch: 2025-10-16T06:58Z
TLE epoch observation values (Epoch: 2025-10-16T06:58:01.183Z)
Latitude
18.22586°
Longitude
156.14563°
Altitude
1,504.378 km
Speed
7.109 km/s
True Right ascension
19h 02m 48s
True Declination
18° 08' 01"
Sunlit
Object was in daylight at epoch
Visualization orbit readout
Latitude
Unknown
Longitude
Unknown
Altitude
Unknown
Speed
Unknown
Apparent Right ascension
Unknown
Apparent Declination
Unknown
Sunlit
N/A
Visualization observer readout
Local Sidereal Time
00:02:53
Azimuth
Unknown
Elevation
Unknown
Doppler factor
Unknown
Orbital elements
Apogee altitude
1,540.932 km
Perigee altitude
1,435.552 km
Semi-major axis
7,866.379 km
Eccentricity
0.0067
Inclination
102.2571°
RAAN
289.7849°
Arg. of periapsis
275.4759°
True anomaly
103.19434°
Mean anomaly
102.4462°
Eccentric anomaly
102.82041°
Mean motion
3.11086 °/min
Orbital period
115.72 mins
BSTAR
0.00018388

Documentation

Showing up to 5 results
|